Location: Newark
(43.6583°N, 1.6617°E)
Time: 13:21:41
(UTC+00:00)

Vanguard 2 Rocket - Pass Details

Date: 19 August 2019
Orbit: 553 x 3327 km, 32.9° (Epoch: 22 October)

Event Time Altitude Azimuth Distance (km) Brightness Sun altitude
Exits shadow 02:37:00 22° 190° (S) 3,982 9.6 -22.7°
Maximum altitude 02:44:53 36° 144° (SE) 3,824 9.9 -21.8°
Drops below altitude 10° 03:01:11 10° 88° (E) 6,250 11.8 -19.6°
Sets 03:06:50 0° 82° (E) 7,319 12.5 -18.9°
